Regional Weather Roundup
Issued by NWS

Home | Current Version | Previous Version | Graphics & Text | Print | Product List | Glossary On
Versions: 1 2 3 4 5 6 7 8 9 10 11 12 13 14 15 16 17 18 19 20 21 22 23 24 25 26 27 28 29 30 31 32 33 34 35 36 37 38 39 40 41 42 43 44 45 46 47 48 49 50
000
ASUS43 KLOT 252103
RWRIL

ILLINOIS REGIONAL WEATHER ROUNDUP
NATIONAL WEATHER SERVICE CHICAGO/ROMEOVILLE IL
400 PM CDT THU AUG 25 2016

NOTE: "FAIR" INDICATES FEW OR NO CLOUDS BELOW 12,000 FEET WITH NO
SIGNIFICANT WEATHER AND/OR OBSTRUCTIONS TO VISIBILITY.

* THESE STATIONS ARE NOT UNDER NWS QUALITY CONTROL. THEY ALSO MAY NOT
  REPORT WEATHER SUCH AS PRECIPITATION OR FOG.

ILZ001-002-007-009-015-016-024-252200-
NORTHWEST ILLINOIS

CITY           SKY/WX    TMP DP  RH WIND       PRES   REMARKS
MOLINE         MOSUNNY   80  65  59 NW5       30.06  HX  82
STERLING*      CLOUDY    76  68  76 NW5       30.06F
SAVANNA*       CLOUDY    77  63  61 NW5       30.06S
$$

ILZ003-004-008-010-011-017-018-252200-
NORTH CENTRAL ILLINOIS

CITY           SKY/WX    TMP DP  RH WIND       PRES   REMARKS
ROCKFORD       CLOUDY    77  63  61 W8        30.06S
FREEPORT*      CLOUDY    76  63  62 W6        30.07S
ROCHELLE*      CLOUDY    76  66  71 W3        30.06F
$$

ILZ005-006-012>014-019>023-252200-
NORTHEAST ILLINOIS

CITY           SKY/WX    TMP DP  RH WIND       PRES   REMARKS
CHICAGO-OHARE  CLOUDY    82  63  52 W6        30.02S HX  83
CHICAGO-MIDWAY PTSUNNY   85  65  51 SW9       30.01F HX  86
AURORA         CLOUDY    80  68  66 W7        30.04F HX  83
LANSING*       MOSUNNY   83  68  59 W8        30.02F HX  86
JOLIET*        CLOUDY    83  68  59 W6        30.03F HX  86
WAUKEGAN       CLOUDY    81  60  48 W6        30.02S HX  82
DUPAGE AIRPORT CLOUDY    80  65  59 VRB5      30.03F HX  82
KANKAKEE*      MOSUNNY   83  72  68 SW6       30.04F HX  89
WHEELING       CLOUDY    83  64  52 W6        30.03S HX  84
MORRIS*        CLOUDY    82  69  63 NW8       30.03S HX  86
ROMEOVILLE*    CLOUDY    80  70  71 W7        30.03F HX  83
NORTHERLY ISL    N/A     76  69  79 SE2         N/A
$$

LMZ740>746-252200-
SOUTHERN LAKE MICHIGAN

STATION/POSITION SKY/WX   TEMP    WIND        PRES    VSBY  WAVE
                          AIR SEA DIR/SP/G                  HT/PER
                          (F)     (DEG/KT/KT) (MB)    (MI)  (FT/S)
SOUTHERN BUOY              73 75  350/  8/ 10 1016.0          1/ 3
WILMETTE HARBOR            73 67  110/  6/  6   N/A           1
HARRISON CRIB              75     130/  8/  9   N/A
BURNHAM HARBOR             76     140/  2/  4   N/A
CALUMET HARBOR             74      50/  8/  9 1016.4F
BURNS HARBOR               75      40/  4/  6 1017.6F
MICHIGAN CITY              76     330/  4/  5   N/A
MICHIGAN CITY 6N           74 74  340/  2/  4   N/A           1/ 2
ST. JOSEPH                 74 75  300/  6/  8 1016.9S         2/ 4
$$

ILZ025>027-034>036-040-047-049-050-058-095>099-252200-
WEST-CENTRAL ILLINOIS

CITY           SKY/WX    TMP DP  RH WIND       PRES   REMARKS
QUINCY         SUNNY     83  72  69 CALM      30.03F HX  88
GALESBURG*     CLOUDY    80  69  69 N3        30.06F HX  82
MACOMB*        CLOUDY    78  72  80 CALM      30.07F HX  81
JACKSONVILLE*  PTSUNNY   83  74  74 N6        30.05F HX  89
PITTSFIELD*    MOSUNNY   86  71  60 SW5       30.05F HX  91
$$

ILZ028>032-037-038-041>044-048-051>054-059>061-252200-
CENTRAL ILLINOIS

CITY           SKY/WX    TMP DP  RH WIND       PRES   REMARKS
PONTIAC        CLOUDY    81  75  80 W3        30.05S HX  87
BLOOMINGTON    PTSUNNY   83  72  69 SW9       30.07F HX  88
DECATUR        PTSUNNY   86  71  60 W10       30.05F HX  91
PEORIA         CLOUDY    80  73  79 SW8       30.05S HX  84
LACON*         CLOUDY    80  69  71 N3        30.04S HX  82
LINCOLN*       PTSUNNY   83  74  73 CALM      30.05S HX  90
SPRINGFIELD    PTSUNNY   86  71  60 SW6       30.05S HX  91
TAYLORVILLE    PTSUNNY   84  73  68 CALM      30.05F HX  90
$$

ILZ033-039-045-046-055>057-062-063-252200-
EAST-CENTRAL ILLINOIS

CITY           SKY/WX    TMP DP  RH WIND       PRES   REMARKS
CHAMPAIGN      MOSUNNY   84  73  69 W8        30.06S HX  90
RANTOUL*       PTSUNNY   84  74  71 W6        30.06S HX  92
MATTOON        PTSUNNY   85  71  63 SW5       30.05F HX  90
PARIS*         MOSUNNY   85  74  68 CALM      30.06F HX  92
$$

ILZ079-100>102-252200-
SOUTHWEST ILLINOIS

CITY           SKY/WX    TMP DP  RH WIND       PRES   REMARKS
ALTON          PTSUNNY   88  72  58 SW5       30.04F HX  94
BELLEVILLE     MOSUNNY   93  71  48 VRB7      30.02F HX  99
CAHOKIA*       PTSUNNY   93  70  46 VRB5      30.02F HX  99
SPARTA*        MOSUNNY   90  75  62 S7        30.05F HX 100
$$

ILZ064>066-069>071-074>076-080>082-084>086-088>090-092>094-252200-
SOUTH-CENTRAL ILLINOIS

CITY           SKY/WX    TMP DP  RH WIND       PRES   REMARKS
CARBONDALE     SUNNY     89  71  55 S10       30.05F HX  95
CAIRO*         MOSUNNY   88  77  69 CALM      30.05F HX  99
EFFINGHAM*     CLOUDY    88  76  67 S7        30.06S HX  99
MARION         MOSUNNY   91  73  55 SW6       30.06F HX 100
MT. VERNON     MOSUNNY   91  72  52 S10       30.05F HX  98
CENTRALIA*     MOSUNNY   89  75  64 SW6       30.04S HX  99
SALEM*         MOSUNNY   91  75  60 SW8       30.05S HX 101
$$

ILZ067-068-072-073-078-083-087-091-252200-
SOUTHEAST ILLINOIS

CITY           SKY/WX    TMP DP  RH WIND       PRES   REMARKS
LAWRENCEVILLE  MOSUNNY   90  75  61 SW7       30.05F HX 100
FLORA*         SUNNY     91  76  61 S7        30.04F HX 102
FAIRFIELD*     MOSUNNY   89  76  65 SW6       30.04F HX  99
HARRISBURG*    SUNNY     92  74  55 SW9       30.05F HX 101
ROBINSON*      MOSUNNY   85  78  77 SW5       30.05F HX  97
CARMI*         MOSUNNY   91  75  59 SW6       30.04F HX 101
$$

ABBREVIATIONS USED IN REMARKS
   TC - TEMPERATURE IN CELSIUS
  WCI - WIND CHILL INDEX
   HX - HEAT INDEX
  VSB - VISIBILITY
$$





USA.gov is the U.S. government's official web portal to all federal, state and local government web resources and services.